Torna al catalogo

CZ-3C DEB

AttivoGTO
NORAD 40175·DEBRIS·🇨🇳 China

Lanciato Oct 31, 2010 da Xichang Satellite Launch Center

Loading…

TLE

ObsoletoSource: Space-Track

Epoca: Sep 12, 2026, 19:01 UTC

1 40175U 10057AD  26255.79261555  .00002936  00000-0  10528-1 0  9997
2 40175  19.1612 129.4040 7057880  71.6501 348.8665  2.46151658  8167

Traccia CZ-3C DEB in tempo reale con AllMySat

Download on the App Store